FW5161 Weather Reports


Display with metric or nautical units.
time (UTC)temp
F
wind
direction
speed
MPH
gust
MPH
rain 1hr
in
rain 24hr
in
rain mn
in
humidity
%
barometer
mb
20260902222826 65 325 4.0 13.0 0.00 0.00 0.00 70 1000.6
20260902222320 65 10 6.0 20.0 0.00 0.00 0.00 69 1000.5
20260902221814 65 24 6.0 20.0 0.00 0.00 0.00 69 1000.8
20260902221308 65 112 4.0 16.0 0.00 0.00 0.00 68 1000.8
20260902220802 65 4 4.0 9.0 0.00 0.00 0.00 69 1000.8
20260902220302 65 60 3.0 11.0 0.00 0.00 0.00 69 1000.9
20260902215802 65 48 3.0 11.0 0.00 0.00 0.00 69 1000.8
20260902215306 66 13 4.0 15.0 0.00 0.00 0.00 68 1001.0
20260902214802 66 336 4.0 15.0 0.00 0.00 0.00 67 1000.9
20260902214301 66 70 3.0 10.0 0.00 0.00 0.00 66 1000.9
20260902213802 67 16 3.0 10.0 0.00 0.00 0.00 65 1000.9
20260902213301 66 356 4.0 10.0 0.00 0.00 0.00 65 1001.0
20260902212805 66 125 4.0 10.0 0.00 0.00 0.00 64 1001.1
20260902212305 67 345 4.0 13.0 0.00 0.00 0.00 63 1001.2
20260902211803 67 101 4.0 13.0 0.00 0.00 0.00 62 1001.1
20260902211303 67 87 4.0 10.0 0.00 0.00 0.00 61 1000.9
20260902210804 67 41 4.0 11.0 0.00 0.00 0.00 62 1000.9
20260902210530 67 65 4.0 11.0 0.00 0.00 0.00 61 1000.8
20260902205802 67 182 4.0 11.0 0.00 0.00 0.00 62 1000.8
20260902205302 67 349 5.0 16.0 0.00 0.00 0.00 62 1000.9
20260902204801 67 276 4.0 16.0 0.00 0.00 0.00 62 1001.0
20260902204530 67 147 5.0 15.0 0.00 0.00 0.00 62 1001.0
20260902203802 67 359 7.0 24.0 0.00 0.00 0.00 62 1001.1
20260902203542 67 90 7.0 24.0 0.00 0.00 0.00 61 1001.1
20260902202802 68 101 5.0 22.0 0.00 0.00 0.00 61 1001.1
20260902201801 67 93 6.0 16.0 0.00 0.00 0.00 61 1001.2
20260902201302 67 78 6.0 15.0 0.00 0.00 0.00 61 1001.2
20260902200802 68 119 5.0 13.0 0.00 0.00 0.00 60 1001.1
20260902200301 69 65 4.0 13.0 0.00 0.00 0.00 60 1001.2
20260902195802 68 68 5.0 14.0 0.00 0.00 0.00 62 1001.2
20260902195302 68 122 5.0 14.0 0.00 0.00 0.00 62 1001.3
20260902194801 68 17 5.0 13.0 0.00 0.00 0.00 62 1001.4
20260902194302 68 357 4.0 11.0 0.00 0.00 0.00 61 1001.4
20260902193801 68 98 3.0 11.0 0.00 0.00 0.00 62 1001.4
20260902193302 68 84 4.0 12.0 0.00 0.00 0.00 62 1001.5
20260902193032 68 68 4.0 12.0 0.00 0.00 0.00 61 1001.5
20260902192301 69 324 4.0 18.0 0.00 0.00 0.00 62 1001.7
20260902191801 67 51 5.0 18.0 0.00 0.00 0.00 63 1001.8
20260902191301 67 135 4.0 13.0 0.00 0.00 0.00 63 1001.8
20260902190800 67 309 4.0 13.0 0.00 0.00 0.00 63 1002.1
20260902190301 67 305 3.0 14.0 0.00 0.00 0.00 64 1001.8
20260902185801 66 346 5.0 14.0 0.00 0.00 0.00 66 1002.0
20260902185301 66 306 5.0 13.0 0.00 0.00 0.00 68 1002.2
20260902184804 66 318 4.0 13.0 0.00 0.00 0.00 67 1002.5
20260902184305 66 355 4.0 10.0 0.00 0.00 0.00 68 1002.5
20260902183801 66 314 3.0 10.0 0.00 0.00 0.00 67 1002.5
20260902183531 67 343 4.0 12.0 0.00 0.00 0.00 68 1002.6
20260902182802 66 358 5.0 12.0 0.00 0.00 0.00 67 1002.6
20260902182300 67 96 5.0 12.0 0.00 0.00 0.00 67 1002.7
20260902181801 66 253 4.0 12.0 0.00 0.00 0.00 67 1002.7
20260902181301 66 38 4.0 13.0 0.00 0.00 0.00 67 1002.8
20260902180801 66 83 3.0 13.0 0.00 0.00 0.00 69 1002.8
20260902180535 65 358 3.0 8.0 0.00 0.00 0.00 70 1002.8
20260902175802 65 84 3.0 8.0 0.00 0.00 0.00 69 1002.8
20260902175307 65 89 4.0 14.0 0.00 0.00 0.00 70 1002.8
20260902174802 64 227 5.0 14.0 0.00 0.00 0.00 71 1002.8
20260902174301 65 256 4.0 14.0 0.00 0.00 0.00 70 1002.9
20260902173804 64 272 4.0 14.0 0.00 0.00 0.00 71 1003.0
20260902173303 64 211 3.0 12.0 0.00 0.00 0.00 71 1002.9
20260902172804 64 326 3.0 11.0 0.00 0.00 0.00 73 1002.9
20260902172308 64 319 3.0 14.0 0.00 0.00 0.00 72 1003.0
20260902171803 64 332 2.0 14.0 0.00 0.00 0.00 73 1003.0
20260902171301 64 60 3.0 9.0 0.00 0.00 0.00 73 1003.1
20260902170800 64 97 3.0 9.0 0.00 0.00 0.00 72 1003.1
20260902170301 64 33 3.0 8.0 0.00 0.00 0.00 74 1003.3
20260902165801 63 66 3.0 6.0 0.00 0.00 0.00 75 1003.3
20260902165308 63 314 4.0 11.0 0.00 0.00 0.00 74 1003.3
20260902164809 63 342 5.0 11.0 0.00 0.00 0.00 75 1003.2
20260902164304 64 301 4.0 9.0 0.00 0.00 0.00 74 1003.3
20260902163802 64 306 4.0 9.0 0.00 0.00 0.00 74 1003.2
20260902163301 64 285 4.0 12.0 0.00 0.00 0.00 76 1003.2
20260902163028 62 336 3.0 12.0 0.00 0.00 0.00 77 1003.2
20260902162522 62 308 2.0 8.0 0.00 0.00 0.00 77 1003.3
20260902161802 62 20 3.0 17.0 0.00 0.00 0.00 77 1003.2
20260902161301 62 31 4.0 17.0 0.00 0.00 0.00 77 1003.3
20260902160801 62 316 3.0 15.0 0.00 0.00 0.00 77 1003.3
20260902160303 62 39 3.0 12.0 0.00 0.00 0.00 78 1003.3
20260902155801 62 61 4.0 12.0 0.00 0.00 0.00 77 1003.4
20260902155301 62 353 5.0 16.0 0.00 0.00 0.00 78 1003.3
20260902154801 62 222 4.0 16.0 0.00 0.00 0.00 78 1003.4
20260902154301 62 37 3.0 11.0 0.00 0.00 0.00 78 1003.6
20260902154033 62 87 4.0 13.0 0.00 0.00 0.00 77 1003.5
20260902153300 62 116 4.0 13.0 0.00 0.00 0.00 78 1003.5
20260902152801 61 91 4.0 11.0 0.00 0.00 0.00 78 1003.5
20260902152301 61 78 4.0 8.0 0.00 0.00 0.00 79 1003.5
20260902151801 61 328 3.0 7.0 0.00 0.00 0.00 78 1003.5
20260902151301 61 305 2.0 7.0 0.00 0.00 0.00 78 1003.4
20260902150800 61 353 2.0 9.0 0.00 0.00 0.00 78 1003.5
20260902150528 61 33 3.0 10.0 0.00 0.00 0.00 78 1003.5
20260902145804 61 345 3.0 10.0 0.00 0.00 0.00 79 1003.6
20260902145301 61 321 2.0 8.0 0.00 0.00 0.00 79 1003.7
20260902144801 61 358 2.0 8.0 0.00 0.00 0.00 80 1003.7
20260902144304 61 46 3.0 10.0 0.00 0.00 0.00 80 1003.8
20260902143805 61 303 3.0 10.0 0.00 0.00 0.00 80 1003.8
20260902143300 61 355 3.0 10.0 0.00 0.00 0.00 80 1003.8
20260902143025 61 200 3.0 10.0 0.00 0.00 0.00 80 1003.8
20260902142301 60 120 2.0 7.0 0.00 0.00 0.00 80 1003.7
20260902142021 60 135 3.0 9.0 0.00 0.00 0.00 81 1003.7
20260902141301 60 85 3.0 11.0 0.00 0.00 0.00 81 1003.7
20260902140804 60 168 4.0 11.0 0.00 0.00 0.00 81 1003.8
20260902140529 60 126 7.0 18.0 0.00 0.00 0.00 82 1003.8
20260902135801 60 90 8.0 18.0 0.00 0.00 0.00 82 1003.8
20260902135300 60 6 7.0 21.0 0.00 0.00 0.00 82 1003.9
20260902134801 60 97 8.0 21.0 0.00 0.00 0.00 82 1003.9
20260902134301 60 68 8.0 18.0 0.00 0.00 0.00 82 1004.0
20260902133800 60 106 9.0 18.0 0.00 0.00 0.00 82 1004.0
20260902133301 60 115 9.0 21.0 0.00 0.00 0.00 83 1003.9
20260902132801 60 145 8.0 21.0 0.00 0.00 0.00 83 1003.9
20260902132301 60 108 9.0 19.0 0.00 0.00 0.00 83 1004.0
20260902131801 60 91 11.0 19.0 0.00 0.00 0.00 82 1003.9
20260902131301 60 78 11.0 25.0 0.00 0.00 0.00 83 1003.8
20260902130803 60 95 10.0 25.0 0.00 0.00 0.00 83 1003.8
20260902130301 60 82 9.0 18.0 0.00 0.00 0.00 83 1003.9
20260902130026 60 95 9.0 17.0 0.00 0.00 0.00 82 1003.9
20260902125305 60 110 9.0 21.0 0.00 0.00 0.00 82 1004.0
20260902124800 60 90 8.0 21.0 0.00 0.00 0.00 83 1003.9
20260902124301 60 68 7.0 18.0 0.00 0.00 0.00 83 1004.1
20260902123800 60 77 8.0 19.0 0.00 0.00 0.00 82 1004.2
20260902123300 60 155 7.0 19.0 0.00 0.00 0.00 82 1004.1
20260902122802 60 134 8.0 19.0 0.00 0.00 0.00 82 1004.2
20260902122301 60 97 9.0 19.0 0.00 0.00 0.00 82 1004.2
20260902121805 60 154 8.0 18.0 0.00 0.00 0.00 82 1004.2
20260902121303 60 94 8.0 17.0 0.00 0.00 0.00 81 1004.4
20260902120801 60 56 8.0 17.0 0.00 0.00 0.00 81 1004.4
20260902120527 60 103 8.0 23.0 0.00 0.00 0.00 81 1004.4
20260902115801 60 130 8.0 23.0 0.00 0.00 0.00 81 1004.5
20260902115301 60 76 8.0 18.0 0.00 0.00 0.00 80 1004.4
20260902114800 60 109 9.0 24.0 0.00 0.00 0.00 80 1004.6
20260902114300 60 124 9.0 24.0 0.00 0.00 0.00 80 1004.5
20260902114021 60 143 7.0 17.0 0.00 0.00 0.00 80 1004.7
20260902113259 60 105 7.0 17.0 0.00 0.00 0.00 80 1004.7
20260902112758 60 121 8.0 20.0 0.00 0.00 0.00 79 1004.8
20260902112252 60 82 9.0 21.0 0.00 0.00 0.00 79 1004.8
20260902111747 60 116 9.0 21.0 0.00 0.00 0.00 79 1004.9
20260902111240 60 107 9.0 21.0 0.00 0.00 0.00 79 1005.0
20260902110734 60 152 9.0 19.0 0.00 0.00 0.00 79 1005.0
20260902110231 60 153 9.0 20.0 0.00 0.00 0.00 79 1005.0
20260902105730 60 143 9.0 20.0 0.00 0.00 0.00 79 1005.2
20260902105230 60 184 9.0 24.0 0.00 0.00 0.00 79 1005.3
20260902104730 60 119 9.0 24.0 0.00 0.00 0.00 79 1005.3
20260902104229 60 125 9.0 21.0 0.00 0.00 0.00 79 1005.2
20260902103730 60 110 9.0 21.0 0.00 0.00 0.00 80 1005.3
20260902103229 60 85 8.0 21.0 0.00 0.00 0.00 80 1005.3
20260902102730 60 80 9.0 21.0 0.00 0.00 0.00 80 1005.3
20260902102229 60 127 8.0 19.0 0.00 0.00 0.00 80 1005.4
20260902101730 60 147 8.0 16.0 0.00 0.00 0.00 80 1005.3
20260902101228 60 100 8.0 16.0 0.00 0.00 0.00 80 1005.6
20260902100729 60 114 9.0 21.0 0.00 0.00 0.00 80 1005.4
20260902100229 60 139 9.0 24.0 0.00 0.00 0.00 81 1005.5
20260902095729 60 124 9.0 24.0 0.00 0.00 0.00 81 1005.4
20260902095230 60 139 9.0 20.0 0.00 0.00 0.00 81 1005.6
20260902094733 60 132 8.0 18.0 0.00 0.00 0.00 82 1005.5
20260902093956 60 125 8.0 17.0 0.00 0.00 0.00 82 1005.6
20260902093229 60 90 8.0 19.0 0.00 0.00 0.00 83 1005.5
20260902092957 60 127 7.0 19.0 0.00 0.00 0.00 83 1005.6
20260902092231 60 103 5.0 14.0 0.00 0.00 0.00 83 1005.7
20260902091956 60 60 4.0 14.0 0.00 0.00 0.00 83 1005.9
20260902091457 60 195 3.0 11.0 0.00 0.00 0.00 84 1005.9
20260902090729 60 124 3.0 10.0 0.00 0.00 0.00 84 1006.0
20260902090229 60 91 3.0 10.0 0.00 0.00 0.00 84 1006.1
20260902085729 60 335 2.0 7.0 0.00 0.00 0.00 84 1006.0
20260902085229 60 325 2.0 7.0 0.00 0.00 0.00 84 1006.1
20260902085000 60 77 2.0 7.0 0.00 0.00 0.00 84 1006.2
20260902084230 60 281 2.0 6.0 0.00 0.00 0.00 84 1006.2
20260902083729 60 290 2.0 5.0 0.00 0.00 0.00 84 1006.2
20260902083500 60 320 2.0 5.0 0.00 0.00 0.00 84 1006.3
20260902082730 60 303 3.0 11.0 0.00 0.00 0.00 84 1006.3
20260902082502 60 6 3.0 11.0 0.00 0.00 0.00 84 1006.4
20260902081733 60 137 4.0 14.0 0.00 0.00 0.00 84 1006.3
20260902081457 60 58 4.0 18.0 0.00 0.00 0.00 84 1006.3
20260902080730 60 191 3.0 18.0 0.00 0.00 0.00 84 1006.3
20260902080229 60 285 3.0 10.0 0.00 0.00 0.00 84 1006.4
20260902075729 60 184 3.0 12.0 0.00 0.00 0.00 83 1006.5
20260902075229 60 20 4.0 12.0 0.00 0.00 0.00 84 1006.5
20260902074729 60 149 4.0 12.0 0.00 0.00 0.00 84 1006.6
20260902074228 60 37 3.0 17.0 0.00 0.00 0.00 84 1006.5
20260902073729 60 218 3.0 17.0 0.00 0.00 0.00 84 1006.6
20260902073229 60 51 3.0 10.0 0.00 0.00 0.00 84 1006.6
20260902072729 60 347 3.0 12.0 0.00 0.00 0.00 84 1006.6
20260902072229 60 349 3.0 12.0 0.00 0.00 0.00 84 1006.6
20260902071729 60 317 3.0 13.0 0.00 0.00 0.00 84 1006.6
20260902071229 60 353 4.0 13.0 0.00 0.00 0.00 83 1006.6
20260902070729 60 53 2.0 13.0 0.00 0.00 0.00 83 1006.6
20260902070229 60 179 2.0 10.0 0.00 0.00 0.00 83 1006.6
20260902065729 60 53 3.0 10.0 0.00 0.00 0.00 83 1006.8
20260902065229 60 139 2.0 9.0 0.00 0.00 0.00 83 1006.9
20260902064728 60 109 2.0 11.0 0.00 0.00 0.00 83 1007.0
20260902064232 60 103 2.0 11.0 0.00 0.00 0.00 83 1006.9
20260902063732 61 37 2.0 10.0 0.00 0.00 0.00 83 1007.0
20260902063232 61 118 1.0 10.0 0.00 0.00 0.00 82 1007.0
20260902062732 61 108 1.0 7.0 0.00 0.00 0.00 82 1007.1
20260902062231 61 95 2.0 7.0 0.00 0.00 0.00 82 1007.1
20260902061732 61 114 2.0 11.0 0.00 0.00 0.00 81 1007.2
20260902061458 61 276 2.0 11.0 0.00 0.00 0.00 81 1007.1
20260902060731 61 89 3.0 10.0 0.00 0.00 0.00 81 1007.1
20260902060231 62 118 3.0 13.0 0.00 0.00 0.00 81 1007.2
20260902055730 62 88 3.0 13.0 0.00 0.00 0.00 81 1007.3
20260902055230 62 172 3.0 8.0 0.00 0.00 0.00 80 1007.4
20260902054731 62 110 3.0 10.0 0.00 0.00 0.00 80 1007.4
20260902054230 62 195 3.0 10.0 0.00 0.00 0.00 79 1007.3
20260902053231 62 122 2.0 9.0 0.00 0.00 0.00 78 1007.3
20260902052725 62 97 3.0 11.0 0.00 0.00 0.00 78 1007.4
20260902052218 62 194 4.0 11.0 0.00 0.00 0.00 77 1007.4
20260902051713 62 110 5.0 12.0 0.00 0.00 0.00 77 1007.5
20260902051213 62 66 5.0 12.0 0.00 0.00 0.00 76 1007.5
20260902050713 63 107 5.0 11.0 0.00 0.00 0.00 76 1007.5
20260902050440 63 166 3.0 11.0 0.00 0.00 0.00 76 1007.5
20260902045713 63 132 2.0 7.0 0.00 0.00 0.00 76 1007.6
20260902045212 63 165 2.0 8.0 0.00 0.00 0.00 76 1007.6
20260902044938 63 159 3.0 11.0 0.00 0.00 0.00 76 1007.4
20260902044213 63 161 5.0 16.0 0.00 0.00 0.00 76 1007.6
20260902043713 64 104 6.0 16.0 0.00 0.00 0.00 76 1007.6
20260902042719 64 183 6.0 12.0 0.00 0.00 0.00 75 1007.5
20260902042210 64 130 6.0 12.0 0.00 0.00 0.00 75 1007.6
20260902041709 64 108 7.0 16.0 0.00 0.00 0.00 74 1007.6
20260902041209 64 138 8.0 16.0 0.00 0.00 0.00 74 1007.6
20260902040709 64 149 7.0 14.0 0.00 0.00 0.00 74 1007.6
20260902040208 64 184 8.0 16.0 0.00 0.00 0.00 74 1007.5
20260902035709 64 197 7.0 16.0 0.00 0.00 0.00 73 1007.5
20260902035208 64 130 6.0 13.0 0.00 0.00 0.00 73 1007.4
20260902034708 64 153 7.0 13.0 0.00 0.00 0.00 73 1007.4
20260902034209 64 143 8.0 13.0 0.00 0.00 0.00 73 1007.4
20260902033702 64 168 8.0 15.0 0.00 0.00 0.00 73 1007.5
20260902033202 64 108 8.0 15.0 0.00 0.00 0.00 73 1007.5
20260902032703 64 126 8.0 16.0 0.00 0.00 0.00 72 1007.5
20260902031702 65 110 7.0 16.0 0.00 0.00 0.00 73 1007.5
20260902031201 65 130 7.0 13.0 0.00 0.00 0.00 73 1007.4
20260902030701 65 98 7.0 13.0 0.00 0.00 0.00 73 1007.4
20260902030426 65 132 7.0 12.0 0.00 0.00 0.00 73 1007.5
20260902025703 65 197 6.0 12.0 0.00 0.00 0.00 73 1007.5
20260902025203 65 159 6.0 13.0 0.00 0.00 0.00 73 1007.5
20260902024701 64 132 5.0 13.0 0.00 0.00 0.00 73 1007.6
20260902024200 64 162 4.0 10.0 0.00 0.00 0.00 74 1007.5
20260902023203 64 130 5.0 12.0 0.00 0.00 0.00 73 1007.5
20260902022657 64 97 6.0 15.0 0.00 0.00 0.00 72 1007.4
20260902022152 64 167 8.0 19.0 0.00 0.00 0.00 73 1007.5
20260902021915 64 141 8.0 19.0 0.00 0.00 0.00 72 1007.4
20260902021140 64 198 7.0 15.0 0.00 0.00 0.00 73 1007.4
20260902020636 64 103 6.0 12.0 0.00 0.00 0.00 73 1007.3
20260902020136 64 153 7.0 15.0 0.00 0.00 0.00 72 1007.5
20260902015635 64 159 7.0 15.0 0.00 0.00 0.00 72 1007.5
20260902015132 64 162 7.0 15.0 0.00 0.00 0.00 71 1007.5
20260902014130 65 234 8.0 18.0 0.00 0.00 0.00 70 1007.5
20260902013629 65 207 7.0 18.0 0.00 0.00 0.00 71 1007.6
20260902013130 64 137 7.0 16.0 0.00 0.00 0.00 71 1007.6
20260902012629 64 85 8.0 15.0 0.00 0.00 0.00 71 1007.5
20260902012352 64 162 8.0 16.0 0.00 0.00 0.00 71 1007.4
20260902011630 64 163 7.0 16.0 0.00 0.00 0.00 71 1007.5
20260902011357 64 124 6.0 16.0 0.00 0.00 0.00 71 1007.5
20260902010856 64 139 7.0 16.0 0.00 0.00 0.00 72 1007.5
20260902010129 64 165 9.0 18.0 0.00 0.00 0.00 72 1007.6
20260902005629 64 133 9.0 18.0 0.00 0.00 0.00 71 1007.5
20260902005128 64 113 9.0 16.0 0.00 0.00 0.00 70 1007.6
20260902004629 65 145 9.0 16.0 0.00 0.00 0.00 70 1007.5
20260902004129 65 112 9.0 19.0 0.00 0.00 0.00 70 1007.4
20260902003631 65 104 8.0 19.0 0.00 0.00 0.00 69 1007.4
20260902003130 65 100 8.0 16.0 0.00 0.00 0.00 69 1007.4
20260902002858 65 193 9.0 16.0 0.00 0.00 0.00 69 1007.3
20260902002351 65 183 8.0 18.0 0.00 0.00 0.00 69 1007.3
20260902001902 65 108 9.0 18.0 0.00 0.00 0.00 68 1007.3
20260902001129 65 114 7.0 17.0 0.00 0.00 0.00 68 1007.4
20260902000629 65 166 8.0 17.0 0.00 0.00 0.00 69 1007.4
20260902000353 64 103 9.0 18.0 0.00 0.00 0.00 70 1007.3
20260901235629 65 130 9.0 18.0 0.00 0.00 0.00 70 1007.3
20260901235128 65 181 11.0 21.0 0.00 0.00 0.00 69 1007.2
20260901234629 65 118 11.0 21.0 0.00 0.00 0.00 68 1007.2
20260901234129 65 113 10.0 19.0 0.00 0.00 0.00 67 1007.3
20260901233852 65 147 10.0 19.0 0.00 0.00 0.00 68 1007.3
20260901233129 65 112 10.0 20.0 0.00 0.00 0.00 67 1007.2
20260901232859 65 132 11.0 20.0 0.00 0.00 0.00 67 1007.2
20260901232129 65 122 11.0 20.0 0.00 0.00 0.00 67 1007.2
20260901231629 66 157 9.0 20.0 0.00 0.00 0.00 66 1007.1
20260901231124 66 125 9.0 20.0 0.00 0.00 0.00 67 1007.1
20260901230620 66 153 9.0 20.0 0.00 0.00 0.00 67 1006.9
20260901230114 66 197 8.0 20.0 0.00 0.00 0.00 67 1007.0
20260901225606 66 118 8.0 21.0 0.00 0.00 0.00 67 1006.9
20260901225329 67 144 8.0 21.0 0.00 0.00 0.00 65 1006.9
20260901224605 66 55 7.0 21.0 0.00 0.00 0.00 66 1007.2
20260901224104 66 148 9.0 21.0 0.00 0.00 0.00 69 1007.0
20260901223604 65 64 11.0 22.0 0.00 0.00 0.00 70 1007.1